Location: Unspecified
(34.2910°N, 0.0000°E)
Time: 10:33:18
(UTC+00:00)

ISS - Visible Passes

Search period start: 20 May 2019 00:00
Search period end: 30 May 2019 00:00
Orbit: 407 x 410 km, 51.6° (Epoch: 20 May)

Date Brightness Start Highest point End Pass type
(mag) Time Alt. Az. Time Alt. Az. Time Alt. Az.
20 May -1.5 02:29:40 10° NNW 02:32:31 26° NE 02:35:22 10° E visible
20 May -2.7 04:06:17 10° WNW 04:09:01 24° SW 04:11:44 10° S visible
20 May -0.5 20:45:32 10° WNW 20:47:32 15° NNW 20:49:33 10° N visible
21 May0.301:46:07E01:46:07E01:37:06NNWvisible
21 May -2.9 03:19:20 33° S 03:19:20 33° S 03:21:26 10° SSE visible
21 May -1.2 19:53:42 10° W 19:56:27 24° NW 19:59:13 10° NNE visible
23 May -0.5 19:50:05 10° NW 19:51:28 12° NNW 19:52:51 10° N visible
28 May -0.6 22:05:55 10° NNE 22:06:15 10° NNE 22:06:15 10° NNE visible
29 May -0.2 22:49:38 10° NNW 22:49:39 10° NNW 22:49:39 10° NNW visible
